Regional Weather Roundup
Issued by NWS Albany, NY

Home | Current Version | Previous Version | Graphics & Text | Print | Product List | Glossary Off
Versions: 1 2 3 4 5 6 7 8 9 10 11 12 13 14 15 16 17 18 19 20 21 22 23 24 25 26 27 28 29 30 31 32 33 34 35 36 37 38 39 40 41 42 43 44 45 46 47 48 49 50

000
ASUS41 KALY 020310
RWRALY

NEW YORK STATE HOURLY WEATHER ROUNDUP
NATIONAL WEATHER SERVICE ALBANY NY
1100 PM EDT WED JUL 01 2015

NOTE: "FAIR" INDICATES FEW OR NO CLOUDS BELOW 12,000 FEET WITH NO
SIGNIFICANT WEATHER AND/OR NO OBSTRUCTIONS TO VISIBILITY.

NYZ032-033-038>043-046>054-057>066-NYZ062>081-020400-
EAST


CITY           SKY/WX    TMP DP  RH WIND       PRES   REMARKS
ALBANY         MOCLDY    66  57  72 W10       29.84R
GLENS FALLS    CLEAR     65  56  72 SW7       29.82R
POUGHKEEPSIE   PTCLDY    68  60  75 CALM      29.86R
NEWBURGH       MOCLDY    66  63  88 W7        29.89R
MONTGOMERY     PTCLDY    63  61  93 CALM      29.88R
WHITE PLAINS   CLOUDY    70  60  70 CALM      29.86R
ISLIP          CLOUDY    74  59  59 W5        29.84R
NEW YORK CITY  CLOUDY    79  58  48 W10       29.85R
CENTRAL PARK   CLOUDY    78  57  48 VRB5      29.89R
$$

NYZ005>009-017-018-044>046-055-056-020400-
CENTRAL


CITY           SKY/WX    TMP DP  RH WIND       PRES   REMARKS
FULTON         FAIR      61  54  77 W8        29.87R
SYRACUSE       PTCLDY    63  57  81 W9        29.86R
ROME           MOCLDY    61  56  83 W6        29.87R
ELMIRA         PTCLDY    62  59  90 SW5       29.91R
BINGHAMTON     PTCLDY    61  56  83 W6        29.92R
MONTICELLO     CLEAR     61  57  88 W6        29.93R
$$

NYZ026>034-041>043-020400-
NORTH


CITY           SKY/WX    TMP DP  RH WIND       PRES   REMARKS
WATERTOWN      MOCLDY    61  58  90 SW3       29.83R
FORT DRUM      NOT AVBL
MASSENA        PTCLDY    60  53  77 W18G24    29.79R
SARANAC LAKE   CLOUDY    58  55  90 VRB5      29.79R
PLATTSBURGH    CLEAR     60  56  86 S3        29.75R
$$

NYZ001>004-010>016-019>021-020400-
WEST


CITY           SKY/WX    TMP DP  RH WIND       PRES   REMARKS
NIAGARA FALLS  PTCLDY    64  55  72 NW9       29.91R
BUFFALO        CLOUDY    64  60  87 SW6       29.92R
DUNKIRK        MOCLDY    63  58  83 SW5       29.94R
JAMESTOWN      MOCLDY    59  54  82 W3        29.97S
WELLSVILLE     PTCLDY    59  54  83 W8        29.98R
ROCHESTER      PTCLDY    61  58  90 W3        29.90R
PENN YAN       CLOUDY    64  60  87 SW7       29.91R
$$

             KEY
       WCI = WIND CHILL INDEX
       VSB = VISIBILITY
       HX  = HEAT INDEX
$$


USA.gov is the U.S. government's official web portal to all federal, state and local government web resources and services.